[Iaude] MPEC C75: 2024 CF1 [a=1.13,e=0.49,i=6.6,H=21.8]

mpec at cfa.harvard.edu mpec at cfa.harvard.edu
Wed Feb 7 08:58:18 EST 2024


M.P.E.C. 2024-C75                              Issued 2024 February 7, 13:56 UT

     The Minor Planet Electronic Circulars contain information on unusual
         minor planets, routine data on comets and natural satellites,
         and occasional editorial announcements.  They are published
    on behalf of Division F of the International Astronomical Union by the
          Minor Planet Center, Smithsonian Astrophysical Observatory,
                          Cambridge, MA 02138, U.S.A.
			  
             Prepared using the Tamkin Foundation Computer Network

                              MPC at CFA.HARVARD.EDU
            URL https://www.minorplanetcenter.net/    ISSN 1523-6714

                                    2024 CF1                                    


Observations:
     K24C01F* C2024 02 01.63587611 21 00.746+26 32 53.85         21.65wXEC075F52
     K24C01F  C2024 02 01.64303611 21 00.452+26 33 06.03         21.59wXEC075F52
     K24C01F  C2024 02 01.65019611 21 00.161+26 33 18.04         21.61wXEC075F52
     K24C01F KC2024 02 03.28786411 19 59.32 +27 21 26.1          22.0 GVEC075H21
     K24C01F KC2024 02 03.29904611 19 58.81 +27 21 46.7          21.6 GVEC075H21
     K24C01F KC2024 02 03.30184111 19 58.68 +27 21 51.6          21.8 GVEC075H21
     K24C01F KC2024 02 05.39052 11 18 15.82 +28 27 49.3          22.0 RVEC075691
     K24C01F KC2024 02 05.40225 11 18 15.09 +28 28 12.0          21.4 RVEC075691
     K24C01F KC2024 02 05.41399 11 18 14.34 +28 28 34.8          21.4 RVEC075691
     K24C01F  C2024 02 07.45384311 16 07.135+29 37 55.55         21.63wXEC075F52
     K24C01F  C2024 02 07.46546611 16 06.202+29 38 20.47         21.53wXEC075F52
     K24C01F  C2024 02 07.47713811 16 05.293+29 38 45.37         21.52wXEC075F52

Observer details:
691 Steward Observatory, Kitt Peak-Spacewatch.  Observer C. Lejoly.  0.9-m f/3
    reflector + CCD.
F52 Pan-STARRS 2, Haleakala.  Observers J. Herman, T. Lowe, P. Minguez, A.
    Schultz, I. Smith.  Measurers K. Chambers, T. de Boer, J. Fairlamb, H.
    Gao, M. Huber, C.-C. Lin, E. Magnier, Y. Ramanjooloo, R. Wainscoat, R.
    Weryk.  1.8-m Ritchey-Chretien + CCD.
H21 Astronomical Research Observatory, Westfield.  Observer R. Holmes.
    Measurers T. Linder, R. Holmes, L. Horn.  0.76-m f/3.0 astrograph + CCD.

Orbital elements:
2024 CF1                                                 Earth MOID = 0.0567 AU
Epoch 2023 Sept. 13.0 TT = JDT 2460200.5                MPC                     
M 152.94247              (2000.0)            P               Q                  
n   0.81729657     Peri.  223.78603     +0.17895076     +0.97916106             
a   1.1329644      Node    56.74559     -0.86811808     +0.20307214             
e   0.4903806      Incl.    6.59356     -0.46297691     -0.00230892             
P   1.21           H   21.89          G   0.15           U   8                  
Residuals in seconds of arc
240201 F52  0.1-  0.0     240203 H21  0.2+  0.1+    240205 691  1.4-  0.1+
240201 F52  0.2-  0.1+    240203 H21  0.3+  0.2-    240207 F52  0.2+  0.1-
240201 F52  0.2-  0.1+    240205 691  1.8-  0.8+    240207 F52  0.0   0.0
240203 H21  0.4-  0.0     240205 691  1.5-  0.4+    240207 F52  0.2+  0.0

Ephemeris:
2024 CF1                 a,e,i = 1.13, 0.49, 7                   q = 0.5774
Date    TT    R. A. (2000) Decl.     Delta      r    Elong.  Phase     V
2024 01 08    11 15 22.1 +19 14 40   0.7196  1.5064   123.7    32.9    23.4
...
2024 01 23    11 22 46.4 +22 44 11   0.5478  1.4338   136.9    28.0    22.6
...
2024 01 31    11 21 48.9 +25 47 37   0.4661  1.3899   144.1    24.5    22.1
...
2024 02 06    11 17 40.7 +28 47 59   0.4104  1.3544   149.0    22.0    21.7
2024 02 07    11 16 37.5 +29 22 01   0.4016  1.3483   149.7    21.6    21.6
2024 02 08    11 15 27.2 +29 57 15   0.3931  1.3422   150.4    21.3    21.5
...
2024 02 14    11 05 32.9 +33 53 48   0.3451  1.3039   152.8    20.2    21.2
...
2024 02 22    10 42 14.7 +40 12 14   0.2913  1.2496   149.9    23.4    20.8
...
2024 03 08    09 05 05.6 +52 43 01   0.2250  1.1376   125.3    45.4    20.7

A. U. Tomatic                (C) Copyright 2024 MPC           M.P.E.C. 2024-C75





More information about the Iaude mailing list